Location: Castillon
(43.0896°N, 0.2156°E)
Time: 19:53:41
(UTC+00:00)

SL-8 R/B - Pass Details

Date: 16 June 2021
Orbit: 656 x 667 km, 48.4° (Epoch: 31 July)

Event Time Altitude Azimuth Distance (km) Brightness Sun altitude
Rises 21:31:00 0° 293° (WNW) 2,992 8.1 -15.2°
Reaches altitude 10° 21:33:24 10° 297° (WNW) 2,077 7.2 -15.5°
Maximum altitude 21:38:08 61° 18° (NNE) 747 4.1 -16.0°
Enters shadow 21:41:58 15° 97° (E) 1,731 5.5 -16.3°
